When you browse on this site, cookies collect data to enhance your experience and personalize the content and advertising you see.
Visit our Privacy Policy to learn more. By continuing to use the site, you agree to this use of cookies and data.
  • In Sweden
  • List of Countries
  • For 7 days
  • Water Temperature
  • Satellite Maps
  • Weather Map
  • Weather Widgets
  • user-avatar
    Login

    Hourly Weather Colesville

    Today, 19 May, Sunday

    Time Temperature Precipitation Wind Pressure Humidity
    00:00 +20°C° 0 mm 3 mps 752 mmHg 85%
    01:00 +20°C° 0 mm 3 mps 752 mmHg 86%
    02:00 +19°C° 0.3 mm 3 mps 752 mmHg 87%
    03:00 +19°C° 0.3 mm 3 mps 752 mmHg 89%
    04:00 +19°C° 0.3 mm 3 mps 752 mmHg 90%
    05:00 +20°C° 0 mm 3 mps 752 mmHg 88%
    06:00 +20°C° 0 mm 3 mps 753 mmHg 87%
    07:00 +21°C° 0 mm 3 mps 753 mmHg 85%
    08:00 +24°C° 0 mm 3 mps 752 mmHg 78%
    09:00 +26°C° 0 mm 3 mps 752 mmHg 71%
    10:00 +29°C° 0 mm 3 mps 752 mmHg 64%
    11:00 +30°C° 0 mm 3 mps 752 mmHg 57%
    12:00 +33°C° 0 mm 4 mps 751 mmHg 49%
    13:00 +35°C° 0 mm 4 mps 751 mmHg 42%
    14:00 +35°C° 0 mm 4 mps 750 mmHg 43%
    15:00 +35°C° 0 mm 4 mps 750 mmHg 43%
    16:00 +35°C° 0 mm 4 mps 749 mmHg 43%
    17:00 +33°C° 0 mm 4 mps 749 mmHg 47%
    18:00 +32°C° 0 mm 4 mps 749 mmHg 52%
    19:00 +29°C° 0 mm 4 mps 749 mmHg 56%
    20:00 +29°C° 0 mm 4 mps 749 mmHg 54%
    21:00 +29°C° 0 mm 5 mps 749 mmHg 52%
    22:00 +29°C° 0 mm 5 mps 749 mmHg 51%
    23:00 +27°C° 0.6 mm 5 mps 750 mmHg 57%

    Tomorrow, 20 May, Monday

    Time Temperature Precipitation Wind Pressure Humidity
    00:00 +26°C° 0.6 mm 4 mps 750 mmHg 63%
    01:00 +25°C° 0.6 mm 3 mps 750 mmHg 69%
    02:00 +25°C° 0.3 mm 3 mps 750 mmHg 72%
    03:00 +24°C° 0.3 mm 2 mps 749 mmHg 75%
    04:00 +24°C° 0.3 mm 2 mps 749 mmHg 78%
    05:00 +24°C° 0.1 mm 2 mps 749 mmHg 77%
    06:00 +24°C° 0.1 mm 3 mps 749 mmHg 76%
    07:00 +25°C° 0.1 mm 4 mps 749 mmHg 75%
    08:00 +26°C° 0.1 mm 4 mps 749 mmHg 68%
    09:00 +28°C° 0.1 mm 5 mps 748 mmHg 61%
    10:00 +30°C° 0.1 mm 5 mps 748 mmHg 54%
    11:00 +30°C° 0.2 mm 5 mps 748 mmHg 52%
    12:00 +32°C° 0.2 mm 5 mps 747 mmHg 50%
    13:00 +33°C° 0.2 mm 5 mps 747 mmHg 48%
    14:00 +32°C° 0 mm 5 mps 746 mmHg 48%
    15:00 +32°C° 0 mm 4 mps 746 mmHg 48%
    16:00 +31°C° 0 mm 3 mps 746 mmHg 48%
    17:00 +30°C° 0 mm 4 mps 746 mmHg 49%
    18:00 +29°C° 0 mm 4 mps 746 mmHg 49%
    19:00 +28°C° 0 mm 4 mps 746 mmHg 49%
    20:00 +26°C° 0 mm 5 mps 747 mmHg 50%
    21:00 +23°C° 0 mm 6 mps 748 mmHg 51%
    22:00 +22°C° 0 mm 6 mps 748 mmHg 52%
    23:00 +20°C° 0 mm 6 mps 749 mmHg 54%

    Day after tomorrow, 21 May, Tuesday

    Time Temperature Precipitation Wind Pressure Humidity
    00:00 +17°C° 0 mm 6 mps 749 mmHg 56%
    01:00 +16°C° 0 mm 6 mps 750 mmHg 58%
    02:00 +14°C° 0 mm 5 mps 750 mmHg 58%
    03:00 +13°C° 0 mm 5 mps 750 mmHg 58%
    04:00 +12°C° 0 mm 5 mps 751 mmHg 58%
    05:00 +12°C° 0 mm 5 mps 751 mmHg 59%
    06:00 +12°C° 0 mm 5 mps 751 mmHg 59%
    07:00 +12°C° 0 mm 5 mps 752 mmHg 59%
    08:00 +13°C° 0 mm 5 mps 752 mmHg 56%
    09:00 +15°C° 0 mm 5 mps 752 mmHg 53%
    10:00 +16°C° 0 mm 5 mps 752 mmHg 49%
    11:00 +17°C° 0 mm 5 mps 752 mmHg 47%
    12:00 +20°C° 0 mm 5 mps 752 mmHg 45%
    13:00 +21°C° 0 mm 5 mps 752 mmHg 42%
    14:00 +21°C° 0 mm 4 mps 752 mmHg 42%
    15:00 +22°C° 0 mm 4 mps 751 mmHg 42%
    16:00 +22°C° 0 mm 4 mps 751 mmHg 41%
    17:00 +21°C° 0 mm 4 mps 752 mmHg 44%
    18:00 +21°C° 0 mm 3 mps 752 mmHg 47%
    19:00 +20°C° 0 mm 3 mps 752 mmHg 50%
    20:00 +19°C° 0 mm 2 mps 753 mmHg 50%
    21:00 +18°C° 0 mm 2 mps 754 mmHg 51%
    22:00 +17°C° 0 mm 2 mps 755 mmHg 51%
    23:00 +17°C° 0 mm 2 mps 755 mmHg 51%

    22 May, Wednesday

    Time Temperature Precipitation Wind Pressure Humidity
    00:00 +16°C° 0 mm 2 mps 755 mmHg 51%
    01:00 +15°C° 0 mm 2 mps 755 mmHg 51%
    02:00 +15°C° 0 mm 2 mps 755 mmHg 53%
    03:00 +14°C° 0 mm 1 mps 755 mmHg 54%
    04:00 +14°C° 0 mm 1 mps 755 mmHg 56%
    05:00 +14°C° 0 mm 1 mps 755 mmHg 54%
    06:00 +15°C° 0 mm 1 mps 756 mmHg 53%
    07:00 +16°C° 0 mm 1 mps 756 mmHg 52%
    08:00 +19°C° 0 mm 1 mps 756 mmHg 47%
    09:00 +21°C° 0 mm 1 mps 757 mmHg 42%
    10:00 +23°C° 0 mm 1 mps 757 mmHg 38%
    11:00 +24°C° 0 mm 1 mps 756 mmHg 36%
    12:00 +26°C° 0 mm 1 mps 756 mmHg 34%
    13:00 +27°C° 0 mm 1 mps 756 mmHg 32%
    14:00 +27°C° 0 mm 1 mps 756 mmHg 33%
    15:00 +27°C° 0 mm 1 mps 755 mmHg 35%
    16:00 +27°C° 0 mm 1 mps 755 mmHg 36%
    17:00 +26°C° 0 mm 1 mps 755 mmHg 39%
    18:00 +25°C° 0 mm 1 mps 755 mmHg 42%
    19:00 +23°C° 0 mm 2 mps 755 mmHg 46%
    20:00 +21°C° 0 mm 2 mps 755 mmHg 46%
    21:00 +21°C° 0 mm 2 mps 756 mmHg 47%
    22:00 +20°C° 0 mm 2 mps 756 mmHg 47%
    23:00 +20°C° 0 mm 2 mps 756 mmHg 49%

    23 May, Thursday

    Time Temperature Precipitation Wind Pressure Humidity
    00:00 +19°C° 0 mm 2 mps 756 mmHg 51%
    01:00 +19°C° 0 mm 2 mps 755 mmHg 53%
    02:00 +18°C° 0.9 mm 2 mps 755 mmHg 61%
    03:00 +17°C° 0.9 mm 2 mps 755 mmHg 68%
    04:00 +17°C° 0.9 mm 2 mps 755 mmHg 76%
    05:00 +17°C° 0.1 mm 2 mps 755 mmHg 77%
    06:00 +18°C° 0.1 mm 2 mps 755 mmHg 77%
    07:00 +19°C° 0.1 mm 2 mps 755 mmHg 78%
    08:00 +20°C° 0 mm 2 mps 755 mmHg 73%
    09:00 +23°C° 0 mm 1 mps 755 mmHg 68%
    10:00 +25°C° 0 mm 1 mps 755 mmHg 63%
    11:00 +27°C° 0 mm 1 mps 755 mmHg 60%
    12:00 +29°C° 0 mm 1 mps 754 mmHg 56%
    13:00 +31°C° 0 mm 2 mps 753 mmHg 53%
    14:00 +32°C° 0 mm 2 mps 753 mmHg 52%
    15:00 +32°C° 0 mm 2 mps 752 mmHg 51%
    16:00 +34°C° 0 mm 2 mps 752 mmHg 50%
    17:00 +31°C° 0.2 mm 2 mps 752 mmHg 55%
    18:00 +30°C° 0.2 mm 2 mps 752 mmHg 60%
    19:00 +29°C° 0.2 mm 2 mps 753 mmHg 64%
    20:00 +28°C° 0.7 mm 3 mps 753 mmHg 65%
    21:00 +27°C° 0.7 mm 3 mps 753 mmHg 66%
    22:00 +26°C° 0.7 mm 4 mps 753 mmHg 67%
    23:00 +25°C° 0 mm 4 mps 752 mmHg 68%

    24 May, Friday

    Time Temperature Precipitation Wind Pressure Humidity
    00:00 +25°C° 0 mm 4 mps 752 mmHg 69%
    01:00 +25°C° 0 mm 4 mps 752 mmHg 70%
    02:00 +23°C° 0 mm 4 mps 752 mmHg 72%
    03:00 +23°C° 0 mm 4 mps 752 mmHg 74%
    04:00 +22°C° 0 mm 3 mps 752 mmHg 76%
    05:00 +23°C° 0 mm 4 mps 752 mmHg 75%
    06:00 +23°C° 0 mm 4 mps 753 mmHg 75%
    07:00 +25°C° 0 mm 4 mps 753 mmHg 74%
    08:00 +26°C° 0 mm 4 mps 753 mmHg 69%
    09:00 +28°C° 0 mm 4 mps 753 mmHg 65%
    10:00 +29°C° 0 mm 4 mps 753 mmHg 60%
    11:00 +30°C° 0 mm 4 mps 753 mmHg 57%
    12:00 +32°C° 0 mm 4 mps 753 mmHg 54%
    13:00 +33°C° 0 mm 4 mps 753 mmHg 50%
    14:00 +33°C° 0 mm 3 mps 753 mmHg 50%
    15:00 +33°C° 0 mm 3 mps 753 mmHg 49%
    16:00 +32°C° 0 mm 2 mps 752 mmHg 48%
    17:00 +31°C° 0 mm 2 mps 753 mmHg 51%
    18:00 +30°C° 0 mm 2 mps 753 mmHg 54%
    19:00 +28°C° 0 mm 2 mps 753 mmHg 58%
    20:00 +26°C° 0 mm 3 mps 753 mmHg 60%
    21:00 +23°C° 0 mm 4 mps 754 mmHg 62%
    22:00 +20°C° 0 mm 4 mps 754 mmHg 64%
    23:00 +19°C° 0 mm 4 mps 754 mmHg 67%
    Show more